Change the Weather History Date:

Friday, September 21, 2012

  Actual Average Record
Temperature  
Mean Temperature 72 °F 71 °F  
Max Temperature 82 °F 81 °F 95 °F (2010)
Min Temperature 62 °F 61 °F 51 °F (2006)
Degree Days  
Heating Degree Days 0 0  
Month to date heating degree days 0  
Since 1 July heating degree days 0  
Cooling Degree Days 7 7  
Month to date cooling degree days 200  
Year to date cooling degree days 1657  
Growing Degree Days 22 (Base 50)    
Moisture  
Dew Point 62 °F    
Average Humidity 76    
Maximum Humidity 97    
Minimum Humidity 42    
Precipitation  
Precipitation 0.00 in 0.16 in 3.47 in (2000)
Month to date precipitation 3.05  
Year to date precipitation 39.63  
Sea Level Pressure  
Sea Level Pressure 30.04 in    
Wind  
Wind Speed 2 mph (SSW)    
Max Wind Speed 9 mph    
Max Gust Speed -    
Visibility 8 miles    
Events      
T = Trace of Precipitation, MM = Missing Value Source: NWS Daily Summary

Daily Weather History Graph

Daily Weather History Graph

Search for Another Location

Airport or City:

Trip Planner

Search our weather history database for the weather conditions in past years. The results will help you decide how hot, cold, wet, or windy it might be!

Date:

Astronomy

Sep. 21, 2012 Rise Set
Actual Time 7:24 AM EDT 7:34 PM EDT
Civil Twilight 6:59 AM EDT 7:59 PM EDT
Nautical Twilight 6:30 AM EDT 8:28 PM EDT
Astronomical Twilight 6:01 AM EDT 8:58 PM EDT
Moon 1:28 PM EDT (9/21) 11:51 PM EDT (9/21)
Length of Visible Light 12h 59m
Length of Day
12h 09m
Waxing Crescent, 37% of the Moon is Illuminated
Sep 21
Waxing Crescent
Sep 22
First Quarter
Sep 29
Full
Oct 8
Last Quarter
Oct 15
New

Hourly Weather History & Observations

Time (EDT) Temp. Heat Index Dew Point Humidity Pressure Visibility Wind Dir Wind Speed Gust Speed Precip Events Conditions
12:53 AM 66.9 °F - 62.1 °F 84% 30.07 in 10.0 mi East 3.5 mph - N/A   Overcast
1:53 AM 66.0 °F - 62.1 °F 87% 30.06 in 10.0 mi Calm Calm - N/A   Clear
2:53 AM 64.0 °F - 61.0 °F 90% 30.06 in 9.0 mi Calm Calm - N/A   Clear
3:37 AM 62.6 °F - 60.8 °F 94% 30.08 in 8.0 mi Calm Calm - N/A   Mostly Cloudy
3:53 AM 64.0 °F - 62.1 °F 93% 30.05 in 8.0 mi Calm Calm - N/A   Overcast
4:15 AM 64.4 °F - 62.6 °F 94% 30.08 in 9.0 mi Calm Calm - N/A   Overcast
4:53 AM 66.0 °F - 64.0 °F 93% 30.04 in 8.0 mi Calm Calm - N/A   Overcast
5:53 AM 64.9 °F - 64.0 °F 97% 30.05 in 6.0 mi South 3.5 mph - N/A   Mostly Cloudy
6:53 AM 66.0 °F - 64.9 °F 96% 30.06 in 5.0 mi Calm Calm - N/A   Overcast
7:53 AM 66.0 °F - 64.9 °F 96% 30.07 in 3.0 mi Calm Calm - N/A   Overcast
8:53 AM 68.0 °F - 66.0 °F 93% 30.07 in 3.0 mi Calm Calm - N/A   Overcast
9:53 AM 70.0 °F - 66.0 °F 87% 30.07 in 4.0 mi SSW 3.5 mph - N/A   Overcast
10:36 AM 71.6 °F - 66.2 °F 83% 30.11 in 6.0 mi SSW 5.8 mph - N/A   Haze
10:53 AM 73.0 °F - 66.0 °F 79% 30.07 in 7.0 mi WSW 3.5 mph - N/A   Overcast
11:53 AM 75.0 °F - 66.0 °F 73% 30.08 in 7.0 mi SSW 5.8 mph - N/A   Mostly Cloudy
12:53 PM 78.1 °F - 63.0 °F 60% 30.06 in 10.0 mi SSW 5.8 mph - N/A   Scattered Clouds
1:53 PM 79.0 °F - 61.0 °F 54% 30.04 in 10.0 mi WSW 6.9 mph - N/A   Scattered Clouds
2:53 PM 81.0 °F 81.3 °F 59.0 °F 47% 30.02 in 10.0 mi SW 9.2 mph - N/A   Partly Cloudy
3:53 PM 82.0 °F 81.7 °F 57.0 °F 42% 29.99 in 10.0 mi SSW 5.8 mph - N/A   Partly Cloudy
4:53 PM 81.0 °F 81.0 °F 57.0 °F 44% 29.97 in 10.0 mi South 3.5 mph - N/A   Clear
5:53 PM 81.0 °F 81.1 °F 57.9 °F 45% 29.97 in 10.0 mi WSW 6.9 mph - N/A   Clear
6:53 PM 79.0 °F - 57.0 °F 47% 29.96 in 10.0 mi SW 4.6 mph - N/A   Clear
7:53 PM 73.0 °F - 59.0 °F 61% 29.97 in 10.0 mi SW 3.5 mph - N/A   Clear
8:53 PM 72.0 °F - 59.0 °F 64% 29.98 in 10.0 mi Calm Calm - N/A   Clear
9:53 PM 66.9 °F - 61.0 °F 81% 30.00 in 10.0 mi Calm Calm - N/A   Clear
10:53 PM 66.9 °F - 61.0 °F 81% 30.01 in 10.0 mi Calm Calm - N/A   Clear
11:53 PM 66.0 °F - 61.0 °F 84% 30.01 in 10.0 mi Calm Calm - N/A   Clear